FW4683 Weather Reports


Display with metric or nautical units.
time (UTC)temp
F
wind
direction
speed
MPH
gust
MPH
rain 1hr
in
rain 24hr
in
rain mn
in
humidity
%
barometer
mb
20260507105521 62 96 0.0 2.0 0.02 0.48 0.06 98 1009.8
20260507105022 62 96 0.0 2.0 0.02 0.48 0.06 98 1009.4
20260507104522 62 96 0.0 2.0 0.02 0.48 0.06 98 1009.5
20260507104021 62 96 0.0 1.0 0.02 0.48 0.06 98 1009.7
20260507103521 62 96 0.0 6.0 0.01 0.47 0.05 98 1009.8
20260507103022 62 96 2.0 4.0 0.00 0.46 0.04 98 1010.0
20260507102021 62 96 0.0 2.0 0.00 0.46 0.04 98 1009.8
20260507101532 62 96 0.0 3.0 0.00 0.46 0.04 98 1009.4
20260507101023 62 96 1.0 3.0 0.00 0.46 0.04 98 1009.3
20260507100520 62 96 0.0 1.0 0.00 0.46 0.04 98 1009.3
20260507100023 62 96 0.0 1.0 0.00 0.46 0.04 98 1009.2
20260507095520 62 96 0.0 1.0 0.00 0.46 0.04 98 1009.0
20260507095020 62 96 0.0 1.0 0.00 0.46 0.04 98 1009.1
20260507094519 62 96 0.0 2.0 0.00 0.46 0.04 98 1009.2
20260507094020 62 96 0.0 2.0 0.00 0.46 0.04 98 1009.4
20260507093523 62 96 0.0 1.0 0.00 0.46 0.04 98 1009.4
20260507093019 62 96 0.0 4.0 0.00 0.46 0.04 98 1009.6
20260507092017 62 96 2.0 4.0 0.00 0.46 0.04 98 1009.6
20260507091519 62 96 1.0 4.0 0.00 0.46 0.04 98 1009.3
20260507091017 62 96 2.0 4.0 0.00 0.46 0.04 98 1009.5
20260507090519 62 96 1.0 3.0 0.00 0.46 0.04 98 1009.4
20260507090015 62 96 0.0 2.0 0.00 0.46 0.04 98 1009.4
20260507085515 62 96 0.0 2.0 0.00 0.46 0.04 98 1009.6
20260507085015 62 96 0.0 2.0 0.00 0.46 0.04 98 1009.6
20260507084515 62 96 0.0 2.0 0.00 0.46 0.04 98 1009.8
20260507084015 62 96 0.0 2.0 0.00 0.46 0.04 98 1009.7
20260507083515 62 96 0.0 2.0 0.00 0.46 0.04 98 1009.5
20260507083015 62 96 1.0 4.0 0.00 0.46 0.04 98 1009.4
20260507082013 62 96 0.0 2.0 0.00 0.46 0.04 98 1009.7
20260507081517 62 96 0.0 2.0 0.00 0.46 0.04 98 1010.1
20260507081013 62 96 1.0 2.0 0.00 0.46 0.04 98 1010.3
20260507080514 63 96 0.0 1.0 0.00 0.46 0.04 98 1010.0
20260507080014 62 96 0.0 1.0 0.00 0.46 0.04 98 1009.7
20260507075514 62 96 0.0 1.0 0.00 0.46 0.04 98 1009.8
20260507075013 62 96 0.0 3.0 0.00 0.46 0.04 98 1009.8
20260507074512 62 96 1.0 4.0 0.00 0.46 0.04 98 1009.4
20260507074012 62 96 1.0 6.0 0.00 0.46 0.04 98 1009.7
20260507073512 62 96 3.0 6.0 0.00 0.46 0.04 98 1009.9
20260507073012 62 96 2.0 6.0 0.00 0.46 0.04 98 1009.8
20260507072014 62 96 2.0 6.0 0.00 0.46 0.04 98 1009.7
20260507071514 62 96 3.0 6.0 0.00 0.46 0.04 98 1009.9
20260507071012 62 96 1.0 6.0 0.00 0.46 0.04 98 1009.8
20260507070512 62 96 1.0 6.0 0.00 0.46 0.04 98 1010.1
20260507070013 62 96 1.0 6.0 0.00 0.46 0.04 98 1010.0
20260507065511 62 96 2.0 6.0 0.00 0.46 0.04 98 1010.3
20260507065013 62 96 1.0 3.0 0.00 0.46 0.04 98 1010.1
20260507064511 62 96 1.0 7.0 0.00 0.46 0.04 98 1010.3
20260507064010 62 96 2.0 9.0 0.00 0.46 0.04 98 1010.5
20260507063509 62 96 4.0 9.0 0.01 0.46 0.04 98 1010.3
20260507063010 62 96 6.0 9.0 0.03 0.46 0.04 98 1010.8
20260507062005 62 96 4.0 9.0 0.04 0.46 0.04 98 1010.7
20260507061505 62 96 5.0 9.0 0.05 0.46 0.04 98 1011.1
20260507061003 62 96 3.0 9.0 0.05 0.46 0.04 98 1011.1
20260507060507 62 96 3.0 7.0 0.05 0.46 0.04 98 1011.0
20260507060012 63 96 2.0 4.0 0.05 0.46 0.04 98 1011.0
20260507055502 63 96 1.0 3.0 0.06 0.46 0.04 98 1011.1
20260507055001 63 96 1.0 3.0 0.06 0.46 0.04 98 1011.4
20260507054501 63 96 1.0 3.0 0.07 0.46 0.04 98 1011.4
20260507054100 63 96 0.0 2.0 0.11 0.46 0.04 98 1011.7
20260507053559 63 96 0.0 4.0 0.12 0.46 0.04 98 1011.5
20260507053058 63 96 1.0 7.0 0.11 0.45 0.03 98 1012.0
20260507052059 63 96 1.0 3.0 0.09 0.42 0.00 98 1012.2
20260507051601 63 96 0.0 2.0 0.10 0.42 0.42 98 1011.9
20260507051059 63 96 0.0 2.0 0.09 0.41 0.41 98 1012.3
20260507050603 63 96 0.0 2.0 0.09 0.41 0.41 98 1012.1
20260507050059 63 96 0.0 3.0 0.09 0.41 0.41 98 1012.0
20260507045559 63 96 2.0 3.0 0.09 0.41 0.41 98 1012.1
20260507045057 63 96 0.0 6.0 0.08 0.40 0.40 98 1012.4
20260507044557 63 96 3.0 6.0 0.07 0.39 0.39 98 1012.7
20260507044059 63 96 1.0 3.0 0.06 0.38 0.38 98 1012.5
20260507043555 63 96 1.0 3.0 0.02 0.34 0.34 98 1012.7
20260507043055 63 96 0.0 2.0 0.02 0.34 0.34 98 1012.4
20260507042054 63 96 0.0 2.0 0.02 0.34 0.34 98 1012.2
20260507041555 63 96 0.0 6.0 0.01 0.33 0.33 98 1012.4
20260507041054 63 96 3.0 6.0 0.00 0.32 0.32 98 1013.1
20260507040554 63 96 1.0 3.0 0.00 0.32 0.32 98 1012.2
20260507040054 64 96 0.0 0.0 0.00 0.32 0.32 98 1012.0
20260507035554 64 96 0.0 4.0 0.00 0.32 0.32 98 1012.1
20260507035054 63 96 1.0 4.0 0.00 0.32 0.32 98 1012.1
20260507034555 64 96 1.0 3.0 0.00 0.32 0.32 98 1012.1
20260507034053 64 96 0.0 4.0 0.00 0.32 0.32 97 1012.1
20260507033553 64 96 1.0 4.0 0.00 0.32 0.32 97 1012.0
20260507033054 64 96 1.0 3.0 0.00 0.32 0.32 97 1012.1
20260507032055 64 96 1.0 6.0 0.01 0.32 0.32 97 1012.2
20260507031553 64 96 1.0 6.0 0.01 0.32 0.32 98 1012.2
20260507031056 64 96 2.0 7.0 0.01 0.32 0.32 97 1012.1
20260507030552 64 96 4.0 7.0 0.01 0.32 0.32 97 1011.8
20260507030052 64 96 1.0 7.0 0.01 0.32 0.32 98 1011.7
20260507025554 64 96 3.0 7.0 0.01 0.32 0.32 97 1011.6
20260507025055 64 96 1.0 6.0 0.01 0.32 0.32 97 1011.5
20260507024603 64 96 1.0 7.0 0.01 0.32 0.32 98 1011.4
20260507024051 64 96 2.0 7.0 0.01 0.32 0.32 97 1011.3
20260507023557 64 96 2.0 15.0 0.02 0.32 0.32 97 1011.1
20260507023051 64 96 4.0 15.0 0.02 0.32 0.32 97 1009.4
20260507022054 65 96 5.0 7.0 0.01 0.31 0.31 97 1012.2
20260507021550 65 96 3.0 6.0 0.01 0.31 0.31 97 1013.1
20260507021050 65 96 2.0 3.0 0.01 0.31 0.31 97 1013.5
20260507020550 65 96 0.0 1.0 0.02 0.31 0.31 97 1013.1
20260507020106 65 96 0.0 1.0 0.03 0.31 0.31 97 1012.7
20260507015549 65 96 0.0 1.0 0.04 0.31 0.31 97 1012.7
20260507015049 65 96 0.0 1.0 0.04 0.31 0.31 97 1012.4
20260507014602 65 96 0.0 1.0 0.04 0.31 0.31 97 1012.4
20260507014049 65 96 0.0 2.0 0.04 0.31 0.31 97 1012.2
20260507013550 65 96 0.0 2.0 0.04 0.31 0.31 97 1012.3
20260507013052 65 96 1.0 3.0 0.03 0.30 0.30 97 1012.3
20260507012049 65 96 1.0 3.0 0.07 0.30 0.30 97 1012.2
20260507011549 65 96 0.0 2.0 0.09 0.30 0.30 96 1011.8
20260507011049 65 96 0.0 4.0 0.11 0.30 0.30 96 1011.7
20260507010549 65 96 0.0 9.0 0.12 0.30 0.30 96 1011.7
20260507010049 65 96 3.0 11.0 0.13 0.28 0.28 96 1012.3
20260507005548 66 96 3.0 11.0 0.12 0.28 0.28 96 1012.7
20260507005049 66 96 5.0 12.0 0.12 0.27 0.27 96 1012.8
20260507004548 65 96 6.0 11.0 0.14 0.27 0.27 96 1012.2
20260507004047 66 96 6.0 9.0 0.15 0.27 0.27 96 1011.7
20260507003547 66 96 3.0 8.0 0.16 0.27 0.27 96 1011.3
20260507003047 66 96 4.0 8.0 0.17 0.27 0.27 95 1010.9
20260507002047 66 96 1.0 8.0 0.15 0.25 0.25 94 1010.7
20260507001548 66 96 2.0 8.0 0.12 0.22 0.22 94 1011.5
20260507001046 67 96 2.0 8.0 0.10 0.20 0.20 94 1011.5
20260507000547 67 96 1.0 7.0 0.08 0.18 0.18 93 1011.7
20260507000046 67 96 2.0 7.0 0.07 0.17 0.17 93 1011.7
20260506235546 67 96 2.0 8.0 0.06 0.16 0.16 93 1011.8
20260506235048 67 96 2.0 8.0 0.05 0.15 0.15 92 1012.0
20260506234551 67 96 2.0 7.0 0.04 0.14 0.14 92 1011.8
20260506234044 67 96 3.0 10.0 0.03 0.13 0.13 91 1011.7
20260506233544 68 96 3.0 10.0 0.01 0.11 0.11 91 1011.8
20260506233045 68 96 3.0 8.0 0.00 0.10 0.10 91 1012.2
20260506232045 68 96 3.0 8.0 0.00 0.10 0.10 91 1011.6
20260506231552 68 96 2.0 11.0 0.00 0.10 0.10 90 1011.3
20260506231045 68 96 2.0 11.0 0.00 0.10 0.10 90 1011.2
20260506230544 68 96 5.0 9.0 0.00 0.10 0.10 90 1011.1
20260506230055 68 96 4.0 13.0 0.00 0.10 0.10 89 1011.1
20260506225544 68 96 7.0 14.0 0.00 0.10 0.10 89 1011.1
20260506225045 68 96 7.0 14.0 0.00 0.10 0.10 89 1010.9
20260506224544 69 96 3.0 8.0 0.00 0.10 0.10 88 1010.8
20260506224043 69 96 3.0 9.0 0.00 0.10 0.10 88 1010.7
20260506223543 69 96 2.0 11.0 0.00 0.10 0.10 87 1010.8
20260506223052 69 96 4.0 11.0 0.00 0.10 0.10 86 1010.9
20260506222043 70 96 4.0 9.0 0.00 0.10 0.10 85 1011.1
20260506221544 70 96 3.0 8.0 0.00 0.10 0.10 84 1011.2
20260506221043 70 96 4.0 8.0 0.00 0.10 0.10 84 1011.3
20260506220543 70 96 1.0 8.0 0.00 0.10 0.10 84 1011.5
20260506220043 70 96 6.0 8.0 0.00 0.10 0.10 83 1011.3
20260506215542 70 96 3.0 7.0 0.00 0.10 0.10 83 1011.0
20260506215042 70 96 0.0 4.0 0.00 0.10 0.10 82 1010.7
20260506214541 70 96 0.0 6.0 0.00 0.10 0.10 82 1011.1
20260506214040 70 96 2.0 6.0 0.00 0.10 0.10 82 1011.2
20260506213543 70 96 2.0 9.0 0.00 0.10 0.10 83 1011.2
20260506213059 70 96 5.0 17.0 0.00 0.10 0.10 83 1011.3
20260506212041 70 96 11.0 16.0 0.00 0.10 0.10 82 1011.3
20260506211550 70 96 4.0 12.0 0.00 0.10 0.10 82 1011.2
20260506211040 70 96 6.0 12.0 0.00 0.10 0.10 81 1011.4
20260506210540 70 96 5.0 12.0 0.00 0.10 0.10 81 1011.5
20260506210040 70 96 6.0 12.0 0.00 0.10 0.10 81 1011.3
20260506205539 70 96 7.0 12.0 0.00 0.10 0.10 81 1011.3
20260506205039 70 96 4.0 16.0 0.00 0.10 0.10 81 1011.4
20260506204546 70 96 10.0 16.0 0.00 0.10 0.10 80 1011.4
20260506204038 70 96 9.0 17.0 0.00 0.10 0.10 80 1011.4
20260506203538 70 96 9.0 17.0 0.00 0.10 0.10 80 1011.4
20260506203045 70 96 9.0 15.0 0.00 0.10 0.10 81 1011.4
20260506202042 70 96 8.0 15.0 0.00 0.10 0.10 81 1011.3
20260506201551 70 96 6.0 16.0 0.00 0.10 0.10 81 1011.5
20260506201036 70 96 10.0 19.0 0.00 0.10 0.10 79 1011.6
20260506200536 71 96 9.0 16.0 0.00 0.10 0.10 79 1011.8
20260506200036 71 96 6.0 16.0 0.00 0.10 0.10 79 1011.8
20260506195535 71 96 8.0 17.0 0.00 0.10 0.10 80 1011.8
20260506195035 71 96 10.0 17.0 0.00 0.10 0.10 79 1011.9
20260506194537 71 96 9.0 14.0 0.00 0.10 0.10 79 1011.7
20260506194033 71 96 9.0 14.0 0.00 0.10 0.10 80 1011.8
20260506193532 71 96 7.0 16.0 0.00 0.10 0.10 79 1012.0
20260506193036 70 96 11.0 18.0 0.00 0.10 0.10 80 1012.2
20260506192034 69 96 12.0 16.0 0.00 0.10 0.10 82 1012.3
20260506191540 69 96 7.0 17.0 0.00 0.10 0.10 82 1012.3
20260506191133 68 96 9.0 17.0 0.00 0.10 0.10 82 1012.2
20260506190530 68 96 8.0 16.0 0.00 0.10 0.10 82 1012.1
20260506190031 68 96 10.0 21.0 0.00 0.10 0.10 83 1012.1
20260506185530 67 96 12.0 21.0 0.00 0.10 0.10 84 1012.1
20260506185029 67 96 9.0 20.0 0.00 0.10 0.10 85 1012.0
20260506184529 67 96 10.0 20.0 0.00 0.10 0.10 86 1012.0
20260506184032 67 96 9.0 19.0 0.00 0.10 0.10 86 1011.9
20260506183529 66 96 10.0 19.0 0.00 0.10 0.10 86 1012.1
20260506183036 66 96 8.0 15.0 0.00 0.10 0.10 85 1012.0
20260506182027 66 96 8.0 16.0 0.00 0.10 0.10 87 1012.0
20260506181526 67 96 8.0 11.0 0.00 0.10 0.10 85 1011.9
20260506181026 67 96 6.0 12.0 0.00 0.10 0.10 86 1011.9
20260506180526 67 96 7.0 13.0 0.00 0.10 0.10 86 1012.1
20260506180024 66 96 6.0 13.0 0.00 0.10 0.10 87 1011.9
20260506175523 66 96 6.0 13.0 0.00 0.10 0.10 87 1011.9
20260506175021 66 96 8.0 14.0 0.00 0.10 0.10 87 1011.9
20260506174520 65 96 5.0 14.0 0.00 0.10 0.10 89 1012.1
20260506174121 65 96 4.0 14.0 0.01 0.10 0.10 90 1012.1
20260506173519 65 96 1.0 8.0 0.01 0.10 0.10 90 1012.1
20260506173019 65 96 1.0 8.0 0.01 0.10 0.10 90 1012.1
20260506172018 64 96 2.0 9.0 0.01 0.10 0.10 89 1011.9
20260506171525 64 96 5.0 13.0 0.01 0.10 0.10 89 1011.8
20260506171021 63 96 4.0 13.0 0.02 0.10 0.10 90 1012.2
20260506170522 63 96 7.0 13.0 0.04 0.10 0.10 90 1012.6
20260506170018 63 96 3.0 7.0 0.05 0.10 0.10 91 1012.8
20260506165517 63 96 2.0 8.0 0.07 0.10 0.10 91 1013.2
20260506165016 63 96 4.0 9.0 0.09 0.10 0.10 91 1013.5
20260506164516 63 96 5.0 9.0 0.10 0.10 0.10 91 1013.7
20260506164021 63 96 4.0 8.0 0.09 0.09 0.09 91 1013.9
20260506163516 63 96 3.0 6.0 0.09 0.09 0.09 91 1014.1
20260506163018 63 96 1.0 3.0 0.09 0.09 0.09 91 1014.2
20260506162021 62 96 0.0 4.0 0.09 0.09 0.09 91 1013.9
20260506161517 62 96 2.0 8.0 0.09 0.09 0.09 90 1014.2
20260506161018 62 96 4.0 8.0 0.09 0.09 0.09 88 1014.2
20260506160520 63 96 1.0 4.0 0.07 0.07 0.07 88 1014.1
20260506160017 63 96 1.0 4.0 0.06 0.06 0.06 87 1014.4
20260506155514 64 96 0.0 2.0 0.04 0.04 0.04 87 1014.4
20260506155014 64 96 0.0 2.0 0.02 0.02 0.02 85 1014.2
20260506154513 64 96 0.0 2.0 0.00 0.00 0.00 85 1014.2
20260506154013 64 96 0.0 7.0 0.00 0.00 0.00 85 1014.0
20260506153511 64 96 3.0 7.0 0.00 0.00 0.00 84 1013.7
20260506153011 64 96 1.0 6.0 0.00 0.00 0.00 83 1013.5
20260506152010 64 96 5.0 10.0 0.00 0.00 0.00 79 1013.5
20260506151510 65 96 3.0 10.0 0.00 0.00 0.00 79 1013.4
20260506151008 64 96 7.0 12.0 0.00 0.00 0.00 79 1013.1
20260506150507 64 96 7.0 11.0 0.00 0.00 0.00 79 1012.8
20260506150007 64 96 6.0 8.0 0.00 0.00 0.00 79 1012.7
20260506145507 64 96 3.0 7.0 0.00 0.00 0.00 79 1012.8
20260506145006 64 96 1.0 9.0 0.00 0.00 0.00 80 1012.8
20260506144506 63 96 0.0 9.0 0.00 0.00 0.00 81 1013.0
20260506144006 63 96 3.0 9.0 0.00 0.00 0.00 81 1013.0
20260506143506 63 96 4.0 9.0 0.00 0.00 0.00 81 1012.7
20260506143015 63 96 2.0 7.0 0.00 0.00 0.00 82 1012.6
20260506142006 63 96 0.0 8.0 0.00 0.00 0.00 82 1012.4
20260506141508 63 96 4.0 8.0 0.00 0.00 0.00 80 1012.7
20260506141009 64 96 3.0 8.0 0.00 0.00 0.00 79 1012.6
20260506140504 64 96 1.0 3.0 0.00 0.00 0.00 77 1011.7
20260506140004 64 96 0.0 4.0 0.00 0.00 0.00 77 1012.5
20260506135503 64 96 1.0 4.0 0.00 0.00 0.00 77 1012.8
20260506135006 64 96 2.0 4.0 0.00 0.00 0.00 76 1012.8
20260506134503 64 96 0.0 7.0 0.00 0.00 0.00 76 1013.0
20260506134002 64 96 1.0 9.0 0.00 0.00 0.00 77 1012.9
20260506133502 64 96 3.0 10.0 0.00 0.00 0.00 76 1012.7
20260506133002 64 96 6.0 12.0 0.00 0.00 0.00 77 1012.7
20260506132002 64 96 3.0 11.0 0.00 0.00 0.00 77 1012.3
20260506131503 64 96 5.0 11.0 0.00 0.00 0.00 76 1012.2
20260506131005 63 96 3.0 11.0 0.00 0.00 0.00 76 1012.3
20260506130503 63 96 4.0 11.0 0.00 0.00 0.00 76 1012.3
20260506130005 63 96 6.0 13.0 0.00 0.00 0.00 76 1012.3
20260506125501 64 96 6.0 13.0 0.00 0.00 0.00 76 1012.1
20260506125002 64 96 5.0 13.0 0.00 0.00 0.00 76 1012.2
20260506124501 63 96 8.0 12.0 0.00 0.00 0.00 76 1012.3
20260506124002 63 96 6.0 13.0 0.00 0.00 0.00 76 1012.2
20260506123502 63 96 7.0 13.0 0.00 0.00 0.00 75 1012.1
20260506123001 63 96 6.0 13.0 0.00 0.00 0.00 75 1012.3
20260506122100 63 96 9.0 14.0 0.00 0.00 0.00 76 1012.3
20260506121600 63 96 6.0 14.0 0.00 0.00 0.00 76 1012.3
20260506121100 63 96 6.0 14.0 0.00 0.00 0.00 76 1012.2
20260506120558 63 96 6.0 14.0 0.00 0.00 0.00 76 1012.3
20260506120058 63 96 3.0 11.0 0.00 0.00 0.00 76 1012.3
20260506115557 63 96 5.0 11.0 0.00 0.00 0.00 76 1012.4
20260506115057 63 96 0.0 7.0 0.00 0.00 0.00 76 1012.6
20260506114557 62 96 1.0 4.0 0.00 0.00 0.00 77 1012.5
20260506114057 62 96 0.0 1.0 0.00 0.00 0.00 78 1012.8
20260506113557 62 96 0.0 4.0 0.00 0.00 0.00 78 1012.8
20260506113057 62 96 0.0 4.0 0.00 0.00 0.00 78 1012.7
20260506112700 62 96 1.0 6.0 0.00 0.00 0.00 77 1012.6
20260506112057 62 96 1.0 6.0 0.00 0.00 0.00 77 1012.6
20260506111557 62 96 1.0 8.0 0.00 0.00 0.00 78 1012.5
20260506111057 62 96 5.0 8.0 0.00 0.00 0.00 77 1012.3
20260506110559 62 96 4.0 8.0 0.00 0.00 0.00 77 1012.3
20260506110057 62 96 5.0 8.0 0.00 0.00 0.00 77 1012.2
20260506105557 62 96 0.0 7.0 0.00 0.00 0.00 77 1012.3